,,,PA_Meas_PMT16A,,PR_Meas_QMR101_102,,RH_Meas_QMH101,,SR_Meas_QMS101,,TA_Meas_QMH101,,GenWind,,GenWind,
date,time,status,PA,status,PR,status,RH,status,SR,status,TA,status,DirAvg,status,SpdAvg,
2008-10-18, 00:00:04,VALID,1002.42,VALID,0,VALID,88.0831,VALID,0,VALID,24.8132,VALID,10,VALID,0.123047,
2008-10-18, 00:01:04,VALID,1002.4,VALID,0,VALID,88.0602,VALID,0,VALID,24.7937,VALID,10,VALID,0,
2008-10-18, 00:02:04,VALID,1002.38,VALID,0,VALID,87.9762,VALID,0,VALID,24.7743,VALID,10,VALID,0,
2008-10-18, 00:03:04,VALID,1002.39,VALID,0,VALID,88.3501,VALID,0,VALID,24.7743,VALID,10,VALID,0,
2008-10-18, 00:04:04,VALID,1002.36,VALID,0,VALID,88.5255,VALID,0,VALID,24.7761,VALID,10,VALID,0,
2008-10-18, 00:05:04,VALID,1002.33,VALID,0,VALID,88.8459,VALID,0,VALID,24.7159,VALID,10,VALID,0,
2008-10-18, 00:06:04,VALID,1002.32,VALID,0,VALID,89.0367,VALID,0,VALID,24.6983,VALID,10,VALID,0,
2008-10-18, 00:07:04,VALID,1002.34,VALID,0,VALID,89.296,VALID,0.100563,VALID,24.638,VALID,10,VALID,0,
2008-10-18, 00:08:04,VALID,1002.31,VALID,0,VALID,89.5783,VALID,0,VALID,24.5814,VALID,10,VALID,0,
2008-10-18, 00:09:04,VALID,1002.31,VALID,0,VALID,89.7156,VALID,0,VALID,24.5035,VALID,10,VALID,0.405859,
2008-10-18, 00:10:04,VALID,1002.3,VALID,0,VALID,89.9216,VALID,0,VALID,24.4451,VALID,10,VALID,0.471875,
2008-10-18, 00:11:04,VALID,1002.29,VALID,0,VALID,90.2115,VALID,0,VALID,24.3459,VALID,10,VALID,0.360938,
2008-10-18, 00:12:04,VALID,1002.26,VALID,0,VALID,90.5853,VALID,0,VALID,24.2875,VALID,10,VALID,0.273047,
2008-10-18, 00:13:04,VALID,1002.28,VALID,0,VALID,90.7074,VALID,0,VALID,24.2486,VALID,10,VALID,0.308984,
2008-10-18, 00:14:04,VALID,1002.24,VALID,0,VALID,90.9591,VALID,0,VALID,24.2291,VALID,10,VALID,0.208203,
2008-10-18, 00:15:04,VALID,1002.24,VALID,0,VALID,91.127,VALID,0,VALID,24.1902,VALID,10,VALID,0.405859,
2008-10-18, 00:16:04,VALID,1002.21,VALID,0,VALID,91.249,VALID,0,VALID,24.1513,VALID,10,VALID,0.435937,
2008-10-18, 00:17:04,VALID,1002.18,VALID,0,VALID,91.4626,VALID,0.100563,VALID,24.0929,VALID,10,VALID,0.528906,
2008-10-18, 00:18:04,VALID,1002.16,VALID,0,VALID,91.6,VALID,0,VALID,24.0539,VALID,10,VALID,0.3,
2008-10-18, 00:19:04,VALID,1002.16,VALID,0,VALID,91.7602,VALID,0,VALID,24.0345,VALID,10,VALID,0,
2008-10-18, 00:20:04,VALID,1002.14,VALID,0,VALID,91.722,VALID,0,VALID,23.9955,VALID,24,VALID,0.425391,
2008-10-18, 00:21:04,VALID,1002.11,VALID,0,VALID,91.6457,VALID,0,VALID,23.9955,VALID,24,VALID,0.371875,
2008-10-18, 00:22:04,VALID,1002.09,VALID,0,VALID,91.661,VALID,0,VALID,23.9973,VALID,24,VALID,0.492969,
2008-10-18, 00:23:04,VALID,1002.09,VALID,0,VALID,91.5008,VALID,0,VALID,23.9566,VALID,24,VALID,0.381641,
2008-10-18, 00:24:04,VALID,1002.07,VALID,0,VALID,91.5084,VALID,0.100563,VALID,23.9973,VALID,25,VALID,0.358984,
2008-10-18, 00:25:04,VALID,1002.05,VALID,0,VALID,91.5923,VALID,0,VALID,23.9566,VALID,25,VALID,0.472266,
2008-10-18, 00:26:04,VALID,1002.02,VALID,0,VALID,91.5466,VALID,0,VALID,23.9371,VALID,25,VALID,0.462109,
2008-10-18, 00:27:04,VALID,1001.99,VALID,0,VALID,91.1728,VALID,0,VALID,23.8964,VALID,26,VALID,0.9375,
2008-10-18, 00:28:04,VALID,1001.98,VALID,0,VALID,90.8523,VALID,0,VALID,23.9195,VALID,29,VALID,0.8875,
2008-10-18, 00:29:04,VALID,1001.97,VALID,0,VALID,91.3177,VALID,0,VALID,23.9566,VALID,29,VALID,0.700391,
2008-10-18, 00:30:04,VALID,1001.97,VALID,0,VALID,91.3635,VALID,0,VALID,23.9371,VALID,28,VALID,0.582422,
2008-10-18, 00:31:04,VALID,1001.94,VALID,0,VALID,91.3024,VALID,0,VALID,23.8982,VALID,28,VALID,0.371484,
2008-10-18, 00:32:04,VALID,1001.94,VALID,0,VALID,91.3711,VALID,0,VALID,23.8593,VALID,28,VALID,0.565234,
2008-10-18, 00:33:04,VALID,1001.94,VALID,0,VALID,91.3482,VALID,0.100563,VALID,23.8203,VALID,8,VALID,0.688281,
2008-10-18, 00:34:04,VALID,1001.94,VALID,0,VALID,91.5466,VALID,0,VALID,23.7619,VALID,8,VALID,0.494531,
2008-10-18, 00:35:04,VALID,1001.91,VALID,0,VALID,91.6686,VALID,0,VALID,23.7425,VALID,8,VALID,0.502734,
2008-10-18, 00:36:04,VALID,1001.93,VALID,0,VALID,91.8212,VALID,0,VALID,23.7035,VALID,8,VALID,0.453516,
2008-10-18, 00:37:04,VALID,1001.94,VALID,0,VALID,91.9051,VALID,0.100563,VALID,23.7248,VALID,8,VALID,0.325781,
2008-10-18, 00:38:04,VALID,1001.91,VALID,0,VALID,91.9738,VALID,0,VALID,23.6841,VALID,8,VALID,0.371875,
2008-10-18, 00:39:04,VALID,1001.92,VALID,0,VALID,91.9204,VALID,0,VALID,23.6469,VALID,8,VALID,0.327734,
2008-10-18, 00:40:04,VALID,1001.93,VALID,0,VALID,92.0272,VALID,0,VALID,23.6062,VALID,7,VALID,0.390625,
2008-10-18, 00:41:04,VALID,1001.92,VALID,0,VALID,92.0653,VALID,0,VALID,23.608,VALID,7,VALID,0.365625,
2008-10-18, 00:42:04,VALID,1001.95,VALID,0,VALID,92.0577,VALID,0,VALID,23.5691,VALID,354,VALID,0.490625,
2008-10-18, 00:43:04,VALID,1001.95,VALID,0,VALID,92.0043,VALID,0,VALID,23.5496,VALID,354,VALID,0.449219,
2008-10-18, 00:44:04,VALID,1001.95,VALID,0,VALID,92.0653,VALID,0,VALID,23.5302,VALID,354,VALID,0.432422,
2008-10-18, 00:45:04,VALID,1001.93,VALID,0,VALID,92.1035,VALID,0,VALID,23.5107,VALID,354,VALID,0.473437,
2008-10-18, 00:46:04,VALID,1001.95,VALID,0,VALID,92.1416,VALID,0,VALID,23.4912,VALID,354,VALID,0.400781,
2008-10-18, 00:47:04,VALID,1001.93,VALID,0,VALID,92.134,VALID,0,VALID,23.4718,VALID,354,VALID,0.390234,
2008-10-18, 00:48:04,VALID,1001.94,VALID,0,VALID,92.073,VALID,0,VALID,23.4718,VALID,354,VALID,0.496094,
2008-10-18, 00:49:04,VALID,1001.92,VALID,0,VALID,92.0958,VALID,0,VALID,23.4523,VALID,354,VALID,0.290625,
2008-10-18, 00:50:04,VALID,1001.96,VALID,0,VALID,92.0882,VALID,0,VALID,23.4523,VALID,354,VALID,0.585156,
2008-10-18, 00:51:04,VALID,1001.94,VALID,0,VALID,92.0272,VALID,0,VALID,23.4523,VALID,354,VALID,0.446875,
2008-10-18, 00:52:04,VALID,1001.94,VALID,0,VALID,92.0043,VALID,0,VALID,23.4134,VALID,354,VALID,0.371484,
2008-10-18, 00:53:04,VALID,1001.99,VALID,0,VALID,92.1874,VALID,0,VALID,23.4523,VALID,353,VALID,0.480859,
2008-10-18, 00:54:04,VALID,1002.01,VALID,0,VALID,92.1874,VALID,0.100563,VALID,23.4487,VALID,353,VALID,0.415234,
2008-10-18, 00:55:04,VALID,1002.01,VALID,0,VALID,92.1492,VALID,0,VALID,23.4735,VALID,348,VALID,0.533594,
2008-10-18, 00:56:04,VALID,1002.04,VALID,0,VALID,92.1874,VALID,0,VALID,23.4523,VALID,357,VALID,0.601172,
2008-10-18, 00:57:04,VALID,1002.05,VALID,0,VALID,92.2332,VALID,0,VALID,23.4718,VALID,357,VALID,0.599219,
2008-10-18, 00:58:04,VALID,1002.04,VALID,0,VALID,92.3018,VALID,0,VALID,23.4718,VALID,357,VALID,0.421484,
2008-10-18, 00:59:04,VALID,1002.07,VALID,0,VALID,92.2484,VALID,0,VALID,23.4718,VALID,357,VALID,0.413672,
2008-10-18, 01:00:04,VALID,1002.05,VALID,0,VALID,92.3018,VALID,0,VALID,23.4523,VALID,356,VALID,0.550391,
2008-10-18, 01:01:04,VALID,1002.06,VALID,0,VALID,92.3247,VALID,0,VALID,23.4523,VALID,350,VALID,0.575391,
2008-10-18, 01:02:04,VALID,1002.05,VALID,0,VALID,92.2866,VALID,0,VALID,23.4523,VALID,350,VALID,0.405859,
2008-10-18, 01:03:04,VALID,1002.05,VALID,0,VALID,92.2942,VALID,0,VALID,23.4523,VALID,349,VALID,0.555078,
2008-10-18, 01:04:04,VALID,1002.04,VALID,0,VALID,92.3018,VALID,0,VALID,23.4718,VALID,349,VALID,0.442969,
2008-10-18, 01:05:04,VALID,1002.03,VALID,0,VALID,92.401,VALID,0,VALID,23.5107,VALID,332,VALID,0.623047,
2008-10-18, 01:06:04,VALID,1002.03,VALID,0,VALID,92.2255,VALID,0,VALID,23.5496,VALID,328,VALID,0.366797,
2008-10-18, 01:07:04,VALID,1002.01,VALID,0,VALID,92.1645,VALID,0,VALID,23.5885,VALID,328,VALID,0.431641,
2008-10-18, 01:08:04,VALID,1002,VALID,0,VALID,92.1416,VALID,0,VALID,23.5885,VALID,343,VALID,0.571094,
2008-10-18, 01:09:04,VALID,1002.01,VALID,0,VALID,92.2484,VALID,0.100563,VALID,23.6452,VALID,344,VALID,0.346875,
2008-10-18, 01:10:04,VALID,1002.01,VALID,0,VALID,92.1264,VALID,0,VALID,23.6646,VALID,344,VALID,0.261328,
2008-10-18, 01:11:04,VALID,1001.98,VALID,0,VALID,92.0196,VALID,0.100563,VALID,23.7035,VALID,344,VALID,0.263672,
2008-10-18, 01:12:04,VALID,1002.01,VALID,0,VALID,91.9585,VALID,0,VALID,23.7407,VALID,335,VALID,0.121094,
2008-10-18, 01:13:04,VALID,1001.98,VALID,0,VALID,91.8441,VALID,0,VALID,23.8203,VALID,333,VALID,0.283984,
2008-10-18, 01:14:04,VALID,1001.94,VALID,0,VALID,91.6534,VALID,0,VALID,23.8593,VALID,333,VALID,0.113672,
2008-10-18, 01:15:04,VALID,1001.99,VALID,0,VALID,91.5389,VALID,0,VALID,23.8769,VALID,333,VALID,0.0621094,
2008-10-18, 01:16:04,VALID,1001.95,VALID,0,VALID,91.4703,VALID,0,VALID,23.9177,VALID,333,VALID,0.000390625,
2008-10-18, 01:17:04,VALID,1001.91,VALID,0,VALID,91.3406,VALID,0,VALID,23.9566,VALID,333,VALID,0.119531,
2008-10-18, 01:18:04,VALID,1001.92,VALID,0,VALID,91.127,VALID,0,VALID,23.9761,VALID,333,VALID,0,
2008-10-18, 01:19:04,VALID,1001.9,VALID,0,VALID,91.0354,VALID,0,VALID,23.9955,VALID,333,VALID,0,
2008-10-18, 01:20:04,VALID,1001.9,VALID,0,VALID,90.9286,VALID,0,VALID,23.9955,VALID,333,VALID,0,
2008-10-18, 01:21:04,VALID,1001.92,VALID,0,VALID,91.0202,VALID,0,VALID,23.9742,VALID,333,VALID,0,
2008-10-18, 01:22:04,VALID,1001.9,VALID,0,VALID,91.0049,VALID,0,VALID,23.9955,VALID,333,VALID,0,
2008-10-18, 01:23:04,VALID,1001.92,VALID,0,VALID,90.9973,VALID,0,VALID,24.015,VALID,318,VALID,0,
2008-10-18, 01:24:04,VALID,1001.92,VALID,0,VALID,91.188,VALID,0,VALID,24.015,VALID,318,VALID,0,
2008-10-18, 01:25:04,VALID,1001.93,VALID,0,VALID,91.3101,VALID,0,VALID,24.0363,VALID,318,VALID,0,
2008-10-18, 01:26:04,VALID,1001.92,VALID,0,VALID,91.5618,VALID,0,VALID,24.015,VALID,318,VALID,0,
2008-10-18, 01:27:04,VALID,1001.95,VALID,0,VALID,91.6229,VALID,0,VALID,23.9761,VALID,318,VALID,0,
2008-10-18, 01:28:04,VALID,1001.93,VALID,0,VALID,91.722,VALID,0,VALID,23.9389,VALID,318,VALID,0,
2008-10-18, 01:29:04,VALID,1001.94,VALID,0,VALID,91.7678,VALID,0,VALID,23.9,VALID,318,VALID,0,
2008-10-18, 01:30:04,VALID,1001.93,VALID,0,VALID,91.8517,VALID,0,VALID,23.8611,VALID,318,VALID,0,
2008-10-18, 01:31:04,VALID,1001.94,VALID,0,VALID,92.0043,VALID,0,VALID,23.8221,VALID,318,VALID,0,
2008-10-18, 01:32:04,VALID,1001.92,VALID,0,VALID,92.1187,VALID,0,VALID,23.7832,VALID,318,VALID,0,
2008-10-18, 01:33:04,VALID,1001.93,VALID,0,VALID,92.2408,VALID,0,VALID,23.7637,VALID,318,VALID,0,
2008-10-18, 01:34:04,VALID,1001.92,VALID,0,VALID,92.3018,VALID,0,VALID,23.7035,VALID,318,VALID,0,
2008-10-18, 01:35:04,VALID,1001.94,VALID,0,VALID,92.3247,VALID,0,VALID,23.6664,VALID,318,VALID,0,
2008-10-18, 01:36:04,VALID,1001.94,VALID,0,VALID,92.4163,VALID,0,VALID,23.6469,VALID,318,VALID,0,
2008-10-18, 01:37:04,VALID,1001.95,VALID,0,VALID,92.4773,VALID,0,VALID,23.6062,VALID,318,VALID,0,
2008-10-18, 01:38:04,VALID,1001.92,VALID,0,VALID,92.6375,VALID,0,VALID,23.5885,VALID,318,VALID,0,
2008-10-18, 01:39:04,VALID,1001.89,VALID,0,VALID,92.7214,VALID,0,VALID,23.5691,VALID,318,VALID,0,
2008-10-18, 01:40:04,VALID,1001.92,VALID,0,VALID,92.7977,VALID,0,VALID,23.5496,VALID,318,VALID,0,
2008-10-18, 01:41:04,VALID,1001.91,VALID,0,VALID,92.8053,VALID,0,VALID,23.5319,VALID,318,VALID,0,
2008-10-18, 01:42:04,VALID,1001.89,VALID,0,VALID,92.9732,VALID,0,VALID,23.4912,VALID,318,VALID,0,
2008-10-18, 01:43:04,VALID,1001.87,VALID,0,VALID,93.0647,VALID,0,VALID,23.4894,VALID,318,VALID,0,
2008-10-18, 01:44:04,VALID,1001.88,VALID,0,VALID,93.1639,VALID,0,VALID,23.47,VALID,318,VALID,0,
2008-10-18, 01:45:04,VALID,1001.88,VALID,0,VALID,93.2325,VALID,0,VALID,23.4912,VALID,318,VALID,0,
2008-10-18, 01:46:04,VALID,1001.89,VALID,0,VALID,93.2707,VALID,0,VALID,23.47,VALID,318,VALID,0,
2008-10-18, 01:47:04,VALID,1001.92,VALID,0,VALID,93.3241,VALID,0,VALID,23.4912,VALID,318,VALID,0,
2008-10-18, 01:48:04,VALID,1001.92,VALID,0,VALID,93.3317,VALID,0,VALID,23.4718,VALID,318,VALID,0,
2008-10-18, 01:49:04,VALID,1001.9,VALID,0,VALID,93.3317,VALID,0,VALID,23.4523,VALID,318,VALID,0,
2008-10-18, 01:50:04,VALID,1001.88,VALID,0,VALID,93.3928,VALID,0,VALID,23.4328,VALID,318,VALID,0,
2008-10-18, 01:51:04,VALID,1001.89,VALID,0,VALID,93.4614,VALID,0,VALID,23.4328,VALID,318,VALID,0,
2008-10-18, 01:52:04,VALID,1001.89,VALID,0,VALID,93.4309,VALID,0,VALID,23.3921,VALID,318,VALID,0,
2008-10-18, 01:53:04,VALID,1001.89,VALID,0,VALID,93.4614,VALID,0,VALID,23.3939,VALID,318,VALID,0,
2008-10-18, 01:54:04,VALID,1001.88,VALID,0,VALID,93.4614,VALID,0,VALID,23.3727,VALID,318,VALID,0,
2008-10-18, 01:55:04,VALID,1001.91,VALID,0,VALID,93.4614,VALID,0,VALID,23.3744,VALID,318,VALID,0,
2008-10-18, 01:56:04,VALID,1001.9,VALID,0,VALID,93.4919,VALID,0,VALID,23.3532,VALID,318,VALID,0,
2008-10-18, 01:57:04,VALID,1001.91,VALID,0,VALID,93.5606,VALID,0,VALID,23.3337,VALID,318,VALID,0,
2008-10-18, 01:58:04,VALID,1001.92,VALID,0,VALID,93.5758,VALID,0,VALID,23.3337,VALID,318,VALID,0,
2008-10-18, 01:59:04,VALID,1001.95,VALID,0,VALID,93.6216,VALID,0,VALID,23.3143,VALID,318,VALID,0,
2008-10-18, 02:00:04,VALID,1001.91,VALID,0,VALID,93.6445,VALID,0,VALID,23.2931,VALID,318,VALID,0,
2008-10-18, 02:01:04,VALID,1001.92,VALID,0,VALID,93.7895,VALID,0,VALID,23.316,VALID,318,VALID,0.321484,
2008-10-18, 02:02:04,VALID,1001.9,VALID,0,VALID,94.0336,VALID,0,VALID,23.3143,VALID,325,VALID,0.557422,
2008-10-18, 02:03:04,VALID,1001.9,VALID,0,VALID,94.0412,VALID,0,VALID,23.355,VALID,325,VALID,0.25,
2008-10-18, 02:04:04,VALID,1001.9,VALID,0,VALID,94.0183,VALID,0,VALID,23.3337,VALID,325,VALID,0.296875,
2008-10-18, 02:05:04,VALID,1001.89,VALID,0,VALID,94.0183,VALID,0.100563,VALID,23.3355,VALID,325,VALID,0.244531,
2008-10-18, 02:06:04,VALID,1001.87,VALID,0,VALID,94.0488,VALID,0,VALID,23.3143,VALID,325,VALID,0.183984,
2008-10-18, 02:07:04,VALID,1001.87,VALID,0,VALID,94.087,VALID,0,VALID,23.316,VALID,325,VALID,0.333984,
2008-10-18, 02:08:04,VALID,1001.85,VALID,0,VALID,94.1404,VALID,0,VALID,23.2948,VALID,325,VALID,0.357031,
2008-10-18, 02:09:04,VALID,1001.82,VALID,0,VALID,94.2167,VALID,0,VALID,23.2948,VALID,325,VALID,0.559766,
2008-10-18, 02:10:04,VALID,1001.81,VALID,0,VALID,94.2319,VALID,0,VALID,23.2736,VALID,333,VALID,0.617578,
2008-10-18, 02:11:04,VALID,1001.8,VALID,0,VALID,94.2319,VALID,0,VALID,23.2559,VALID,333,VALID,0.470313,
2008-10-18, 02:12:04,VALID,1001.78,VALID,0,VALID,94.1633,VALID,0,VALID,23.2771,VALID,335,VALID,0.518359,
2008-10-18, 02:13:04,VALID,1001.77,VALID,0,VALID,94.2396,VALID,0,VALID,23.217,VALID,335,VALID,0.335938,
2008-10-18, 02:14:04,VALID,1001.71,VALID,0,VALID,94.3464,VALID,0,VALID,23.2382,VALID,335,VALID,0.362891,
2008-10-18, 02:15:04,VALID,1001.7,VALID,0,VALID,94.3921,VALID,0,VALID,23.2382,VALID,337,VALID,0.641406,
2008-10-18, 02:16:04,VALID,1001.67,VALID,0,VALID,94.3921,VALID,0,VALID,23.2364,VALID,345,VALID,0.569531,
2008-10-18, 02:17:04,VALID,1001.65,VALID,0,VALID,94.4532,VALID,0,VALID,23.2364,VALID,353,VALID,0.594141,
2008-10-18, 02:18:04,VALID,1001.63,VALID,0,VALID,94.4913,VALID,0,VALID,23.2559,VALID,354,VALID,0.534766,
2008-10-18, 02:19:04,VALID,1001.64,VALID,0,VALID,94.4455,VALID,0,VALID,23.2559,VALID,353,VALID,0.528516,
2008-10-18, 02:20:04,VALID,1001.64,VALID,0,VALID,94.4227,VALID,0,VALID,23.2559,VALID,353,VALID,0.528906,
2008-10-18, 02:21:04,VALID,1001.63,VALID,0,VALID,94.5371,VALID,0,VALID,23.2347,VALID,352,VALID,0.592969,
2008-10-18, 02:22:04,VALID,1001.61,VALID,0,VALID,94.5066,VALID,0,VALID,23.2541,VALID,352,VALID,0.557813,
2008-10-18, 02:23:04,VALID,1001.62,VALID,0,VALID,94.4989,VALID,0,VALID,23.2559,VALID,352,VALID,0.391016,
2008-10-18, 02:24:04,VALID,1001.61,VALID,0,VALID,94.5371,VALID,0,VALID,23.2948,VALID,351,VALID,0.504687,
2008-10-18, 02:25:04,VALID,1001.6,VALID,0,VALID,94.5371,VALID,0,VALID,23.3337,VALID,352,VALID,0.499219,
2008-10-18, 02:26:04,VALID,1001.57,VALID,0,VALID,94.5218,VALID,0,VALID,23.3744,VALID,352,VALID,0.426953,
2008-10-18, 02:27:04,VALID,1001.56,VALID,0,VALID,94.4837,VALID,0,VALID,23.3744,VALID,352,VALID,0.419141,
2008-10-18, 02:28:04,VALID,1001.53,VALID,0,VALID,94.415,VALID,0,VALID,23.3532,VALID,352,VALID,0.452734,
2008-10-18, 02:29:04,VALID,1001.54,VALID,0,VALID,94.4684,VALID,0,VALID,23.3921,VALID,352,VALID,0.388281,
2008-10-18, 02:30:04,VALID,1001.51,VALID,0,VALID,94.4761,VALID,0,VALID,23.4311,VALID,350,VALID,0.549219,
2008-10-18, 02:31:04,VALID,1001.49,VALID,0,VALID,94.3692,VALID,0,VALID,23.4311,VALID,350,VALID,0.317578,
2008-10-18, 02:32:04,VALID,1001.49,VALID,0,VALID,94.3158,VALID,0,VALID,23.4912,VALID,350,VALID,0.489844,
2008-10-18, 02:33:04,VALID,1001.49,VALID,0,VALID,94.1785,VALID,0,VALID,23.47,VALID,351,VALID,0.387109,
2008-10-18, 02:34:04,VALID,1001.49,VALID,0,VALID,94.2014,VALID,0,VALID,23.47,VALID,338,VALID,0.407422,
2008-10-18, 02:35:04,VALID,1001.48,VALID,0,VALID,94.1251,VALID,0,VALID,23.4894,VALID,342,VALID,0.403125,
2008-10-18, 02:36:04,VALID,1001.45,VALID,0,VALID,94.1404,VALID,0,VALID,23.4894,VALID,342,VALID,0.391016,
2008-10-18, 02:37:04,VALID,1001.45,VALID,0,VALID,94.0336,VALID,0.100563,VALID,23.5107,VALID,343,VALID,0.3875,
2008-10-18, 02:38:04,VALID,1001.39,VALID,0,VALID,93.9268,VALID,0,VALID,23.5089,VALID,343,VALID,0.338672,
2008-10-18, 02:39:04,VALID,1001.39,VALID,0,VALID,94.0107,VALID,0,VALID,23.5478,VALID,336,VALID,0.292188,
2008-10-18, 02:40:04,VALID,1001.39,VALID,0,VALID,94.0107,VALID,0,VALID,23.5496,VALID,344,VALID,0.366016,
2008-10-18, 02:41:04,VALID,1001.35,VALID,0,VALID,93.9649,VALID,0,VALID,23.5691,VALID,335,VALID,0.491797,
2008-10-18, 02:42:04,VALID,1001.36,VALID,0,VALID,93.9268,VALID,0,VALID,23.5885,VALID,336,VALID,0.458594,
2008-10-18, 02:43:04,VALID,1001.36,VALID,0,VALID,93.7971,VALID,0,VALID,23.5885,VALID,336,VALID,0.458594,
2008-10-18, 02:44:04,VALID,1001.36,VALID,0,VALID,93.675,VALID,0,VALID,23.5885,VALID,336,VALID,0.498047,
2008-10-18, 02:45:04,VALID,1001.37,VALID,0,VALID,93.7742,VALID,0,VALID,23.5673,VALID,336,VALID,0.196094,
2008-10-18, 02:46:04,VALID,1001.39,VALID,0,VALID,93.5911,VALID,0,VALID,23.5496,VALID,337,VALID,0.423438,
2008-10-18, 02:47:04,VALID,1001.41,VALID,0,VALID,93.6903,VALID,0,VALID,23.5284,VALID,339,VALID,0.373437,
2008-10-18, 02:48:04,VALID,1001.42,VALID,0,VALID,93.6979,VALID,0,VALID,23.5284,VALID,339,VALID,0.189063,
2008-10-18, 02:49:04,VALID,1001.45,VALID,0,VALID,93.7132,VALID,0,VALID,23.5496,VALID,339,VALID,0.254297,
2008-10-18, 02:50:04,VALID,1001.44,VALID,0,VALID,93.7437,VALID,0,VALID,23.5691,VALID,339,VALID,0.00195313,
2008-10-18, 02:51:04,VALID,1001.44,VALID,0,VALID,93.6826,VALID,0,VALID,23.5673,VALID,339,VALID,0.404297,
2008-10-18, 02:52:04,VALID,1001.46,VALID,0,VALID,93.6292,VALID,0,VALID,23.608,VALID,340,VALID,0.434766,
2008-10-18, 02:53:04,VALID,1001.45,VALID,0,VALID,93.5224,VALID,0,VALID,23.5673,VALID,340,VALID,0.420312,
2008-10-18, 02:54:04,VALID,1001.45,VALID,0,VALID,93.5911,VALID,0,VALID,23.608,VALID,341,VALID,0.507813,
2008-10-18, 02:55:04,VALID,1001.46,VALID,0,VALID,93.5453,VALID,0,VALID,23.6062,VALID,341,VALID,0.411719,
2008-10-18, 02:56:04,VALID,1001.45,VALID,0,VALID,93.5987,VALID,0,VALID,23.6257,VALID,341,VALID,0.565625,
2008-10-18, 02:57:04,VALID,1001.46,VALID,0,VALID,93.5606,VALID,0,VALID,23.6859,VALID,342,VALID,0.547266,
2008-10-18, 02:58:04,VALID,1001.47,VALID,0,VALID,93.4767,VALID,0,VALID,23.6841,VALID,342,VALID,0.405469,
2008-10-18, 02:59:04,VALID,1001.45,VALID,0,VALID,93.5301,VALID,0,VALID,23.7443,VALID,342,VALID,0.396875,
2008-10-18, 03:00:04,VALID,1001.5,VALID,0,VALID,93.3851,VALID,0,VALID,23.7425,VALID,343,VALID,0.474219,
2008-10-18, 03:01:04,VALID,1001.49,VALID,0,VALID,93.2402,VALID,0,VALID,23.7619,VALID,342,VALID,0.195703,
2008-10-18, 03:02:04,VALID,1001.49,VALID,0,VALID,93.1105,VALID,0,VALID,23.8027,VALID,341,VALID,0.028125,
2008-10-18, 03:03:04,VALID,1001.5,VALID,0,VALID,93.0189,VALID,0,VALID,23.7814,VALID,341,VALID,0.00585938,
2008-10-18, 03:04:04,VALID,1001.47,VALID,0,VALID,93.0189,VALID,0,VALID,23.7814,VALID,341,VALID,0,
2008-10-18, 03:05:04,VALID,1001.5,VALID,0,VALID,93.0037,VALID,0.100563,VALID,23.7814,VALID,341,VALID,0.0128906,
2008-10-18, 03:06:04,VALID,1001.47,VALID,0,VALID,92.9655,VALID,0,VALID,23.7814,VALID,342,VALID,0.191016,
2008-10-18, 03:07:04,VALID,1001.47,VALID,0,VALID,92.8892,VALID,0,VALID,23.7814,VALID,342,VALID,0.34375,
2008-10-18, 03:08:04,VALID,1001.51,VALID,0,VALID,92.729,VALID,0,VALID,23.7832,VALID,342,VALID,0.361719,
2008-10-18, 03:09:04,VALID,1001.51,VALID,0,VALID,92.8206,VALID,0,VALID,23.7619,VALID,342,VALID,0.210547,
2008-10-18, 03:10:04,VALID,1001.51,VALID,0,VALID,92.8282,VALID,0,VALID,23.7832,VALID,342,VALID,0.318359,
2008-10-18, 03:11:04,VALID,1001.51,VALID,0,VALID,92.8816,VALID,0,VALID,23.7619,VALID,342,VALID,0.00429688,
2008-10-18, 03:12:04,VALID,1001.5,VALID,0,VALID,92.9045,VALID,0,VALID,23.7832,VALID,342,VALID,0.0210938,
2008-10-18, 03:13:04,VALID,1001.52,VALID,0,VALID,92.8816,VALID,0,VALID,23.7619,VALID,342,VALID,0.0605469,
2008-10-18, 03:14:04,VALID,1001.53,VALID,0,VALID,92.813,VALID,0,VALID,23.7425,VALID,344,VALID,0.515625,
2008-10-18, 03:15:04,VALID,1001.53,VALID,0,VALID,92.7824,VALID,0,VALID,23.7443,VALID,344,VALID,0.277344,
2008-10-18, 03:16:04,VALID,1001.57,VALID,0,VALID,92.8587,VALID,0,VALID,23.7443,VALID,344,VALID,0.05625,
2008-10-18, 03:17:04,VALID,1001.58,VALID,0,VALID,92.9732,VALID,0,VALID,23.723,VALID,344,VALID,0,
2008-10-18, 03:18:04,VALID,1001.62,VALID,0,VALID,92.9121,VALID,0,VALID,23.7035,VALID,344,VALID,0.448047,
2008-10-18, 03:19:04,VALID,1001.63,VALID,0,VALID,92.8969,VALID,0,VALID,23.7035,VALID,345,VALID,0.458984,
2008-10-18, 03:20:04,VALID,1001.65,VALID,0,VALID,92.8435,VALID,0,VALID,23.6646,VALID,345,VALID,0.333984,
2008-10-18, 03:21:04,VALID,1001.68,VALID,0,VALID,92.9961,VALID,0,VALID,23.6646,VALID,345,VALID,0.382813,
2008-10-18, 03:22:04,VALID,1001.68,VALID,0,VALID,93.2173,VALID,0,VALID,23.6452,VALID,345,VALID,0.260938,
2008-10-18, 03:23:04,VALID,1001.7,VALID,0,VALID,93.2859,VALID,0,VALID,23.6257,VALID,345,VALID,0.366797,
2008-10-18, 03:24:04,VALID,1001.74,VALID,0,VALID,93.3699,VALID,0,VALID,23.6257,VALID,345,VALID,0.320313,
2008-10-18, 03:25:04,VALID,1001.75,VALID,0,VALID,93.3241,VALID,0,VALID,23.6062,VALID,345,VALID,0.313281,
2008-10-18, 03:26:04,VALID,1001.8,VALID,0,VALID,93.347,VALID,0,VALID,23.608,VALID,345,VALID,0.294141,
2008-10-18, 03:27:04,VALID,1001.78,VALID,0,VALID,93.4004,VALID,0,VALID,23.6062,VALID,345,VALID,0.188672,
2008-10-18, 03:28:04,VALID,1001.79,VALID,0,VALID,93.4614,VALID,0,VALID,23.5868,VALID,345,VALID,0.128125,
2008-10-18, 03:29:04,VALID,1001.81,VALID,0,VALID,93.4385,VALID,0,VALID,23.5885,VALID,345,VALID,0.297266,
2008-10-18, 03:30:04,VALID,1001.82,VALID,0,VALID,93.4309,VALID,0,VALID,23.5284,VALID,345,VALID,0.144922,
2008-10-18, 03:31:04,VALID,1001.83,VALID,0,VALID,93.4385,VALID,0,VALID,23.5302,VALID,345,VALID,0.273047,
2008-10-18, 03:32:04,VALID,1001.88,VALID,0,VALID,93.4156,VALID,0,VALID,23.4894,VALID,345,VALID,0.113281,
2008-10-18, 03:33:04,VALID,1001.87,VALID,0,VALID,93.4614,VALID,0,VALID,23.4311,VALID,345,VALID,0.173047,
2008-10-18, 03:34:04,VALID,1001.89,VALID,0,VALID,93.6064,VALID,0,VALID,23.4311,VALID,345,VALID,0,
2008-10-18, 03:35:04,VALID,1001.89,VALID,0,VALID,93.6216,VALID,0,VALID,23.4523,VALID,345,VALID,0,
2008-10-18, 03:36:04,VALID,1001.9,VALID,0,VALID,93.6903,VALID,0,VALID,23.4328,VALID,345,VALID,0,
2008-10-18, 03:37:04,VALID,1001.91,VALID,0,VALID,93.7513,VALID,0,VALID,23.4134,VALID,345,VALID,0,
2008-10-18, 03:38:04,VALID,1001.94,VALID,0,VALID,93.7895,VALID,0,VALID,23.3727,VALID,345,VALID,0.223047,
2008-10-18, 03:39:04,VALID,1001.91,VALID,0,VALID,93.7895,VALID,0,VALID,23.3744,VALID,345,VALID,0.153516,
2008-10-18, 03:40:04,VALID,1001.94,VALID,0,VALID,93.8581,VALID,0,VALID,23.3337,VALID,345,VALID,0.075,
2008-10-18, 03:41:04,VALID,1001.92,VALID,0,VALID,93.9649,VALID,0,VALID,23.3337,VALID,345,VALID,0,
2008-10-18, 03:42:04,VALID,1001.92,VALID,0,VALID,94.0946,VALID,0,VALID,23.3744,VALID,346,VALID,0,
2008-10-18, 03:43:04,VALID,1001.92,VALID,0,VALID,94.209,VALID,0,VALID,23.3532,VALID,346,VALID,0,
2008-10-18, 03:44:04,VALID,1001.91,VALID,0,VALID,94.2396,VALID,0,VALID,23.3532,VALID,345,VALID,0,
2008-10-18, 03:45:04,VALID,1001.92,VALID,0,VALID,94.2319,VALID,0,VALID,23.3532,VALID,346,VALID,0,
2008-10-18, 03:46:04,VALID,1001.94,VALID,0,VALID,94.2167,VALID,0,VALID,23.3532,VALID,345,VALID,0,
2008-10-18, 03:47:04,VALID,1001.95,VALID,0,VALID,94.2548,VALID,0,VALID,23.3143,VALID,345,VALID,0,
2008-10-18, 03:48:04,VALID,1001.94,VALID,0,VALID,94.293,VALID,0,VALID,23.3337,VALID,345,VALID,0,